This is the latest recevied weather packets stored in our database for station/object G4KVI. If no packets are shown the sender has not sent any weather packets the latest 1 day(s).
| Time | Temp. | Humidity | Pressure | Rain* | Wind** | Luminosity | Snow |
|---|---|---|---|---|---|---|---|
| 1778031603 | 10° C | 75% | 1015.1 hPa | 0 mm | 0.89 m/s, 85° | 0 W/m² | - |
| 1778031303 | 10° C | 75% | 1015.2 hPa | 0 mm | 0.45 m/s, 86° | 0 W/m² | - |
| 1778031003 | 10° C | 76% | 1015.4 hPa | 0 mm | 0.45 m/s, 85° | 0 W/m² | - |
| 1778030703 | 10° C | 76% | 1015.4 hPa | 0 mm | 0.45 m/s, 71° | 0 W/m² | - |
| 1778030403 | 10° C | 76% | 1015.6 hPa | 0 mm | 0.45 m/s, 61° | 0 W/m² | - |
| 1778030103 | 10° C | 76% | 1015.5 hPa | 0 mm | 0.45 m/s, 45° | 0 W/m² | - |
| 1778029803 | 10° C | 76% | 1015.5 hPa | 0 mm | 0.45 m/s, 28° | 0 W/m² | - |
| 1778029503 | 10° C | 76% | 1015.5 hPa | 0 mm | 0.45 m/s, 359° | 0 W/m² | - |
| 1778029203 | 10° C | 76% | 1015.5 hPa | 0 mm | 0.45 m/s, 339° | 0 W/m² | - |
| 1778028903 | 10° C | 76% | 1015.4 hPa | 0 mm | 0.45 m/s, 332° | 0 W/m² | - |
| 1778028603 | 10° C | 76% | 1015.4 hPa | 0 mm | 0 m/s | 0 W/m² | - |
| 1778028303 | 10° C | 75% | 1015.5 hPa | 0 mm | 0 m/s | 0 W/m² | - |
| 1778028003 | 10° C | 75% | 1015.7 hPa | 0 mm | 0.45 m/s, 327° | 0 W/m² | - |
| 1778027703 | 10° C | 75% | 1015.3 hPa | 0 mm | 0 m/s | 0 W/m² | - |
| 1778027403 | 10° C | 75% | 1015.6 hPa | 0 mm | 0.45 m/s, 340° | 0 W/m² | - |
| 1778027103 | 10° C | 74% | 1015.7 hPa | 0 mm | 0.45 m/s, 332° | 0 W/m² | - |
| 1778026803 | 10° C | 74% | 1015.6 hPa | 0 mm | 0.45 m/s, 349° | 0 W/m² | - |
| 1778026503 | 10.56° C | 74% | 1015.7 hPa | 0 mm | 0.45 m/s, 19° | 0 W/m² | - |
| 1778026203 | 10.56° C | 74% | 1015.6 hPa | 0 mm | 0.45 m/s, 3° | 0 W/m² | - |
| 1778025903 | 10.56° C | 73% | 1015.7 hPa | 0 mm | 0.45 m/s, 10° | 0 W/m² | - |
| 1778025603 | 10.56° C | 73% | 1015.3 hPa | 0 mm | 0.45 m/s, 5° | 0 W/m² | - |
| 1778025303 | 10.56° C | 73% | 1015.4 hPa | 0 mm | 0.45 m/s, 337° | 0 W/m² | - |
| 1778025003 | 10.56° C | 73% | 1015.5 hPa | 0 mm | 0.45 m/s, 342° | 0 W/m² | - |
| 1778024703 | 10.56° C | 72% | 1015.6 hPa | 0 mm | 0.45 m/s, 343° | 0 W/m² | - |
| 1778024403 | 10.56° C | 72% | 1015.6 hPa | 0 mm | 0.45 m/s, 341° | 0 W/m² | - |
* Rain latest hour (hover to see other rain measurements)
** Current wind speed in m/s (hover to see current wind gust speed)